{"data":{"norad_id":57811,"epoch":"2026-09-20T21:35:53.323008Z","epoch_age_seconds":97159,"freshness":"FRESH","line1":"1 57811U 23138D   26263.89992272 -.00000945  00000+0 -24821-4 0  9996","line2":"2 57811  43.0026 211.7029 0000912 258.3827 101.6922 15.27565028168599","mean_motion":15.27565028,"eccentricity":9.12e-5,"inclination_deg":43.0026,"raan_deg":211.7029,"arg_perigee_deg":258.3827,"mean_anomaly_deg":101.6922,"bstar":-2.4821e-5,"rev_number":16859,"period_min":94.267672642739,"perigee_km":482.46818369934,"apogee_km":483.7196722206,"semimajor_km":6861.23092796,"source":"CELESTRAK","updated_at":"2026-09-21T09:00:33.707141Z"}}